Simultaneous Nadir Overpasses (SNOs) Predictions

Prediction of SNOs between AQUA and GOES-15 Satellite Orbit:

Table of predicted SNOs for the next 14.0 days since TLE Epoch: 7/28/2017
Index Date Time (AQUA) AQUA Lat,Lon GOES-15 Lat,Lon Distance(km) Time Diff (sec)
1 07/29/2017 22:28:40 0.55,-133.41 0.23,-134.80 157.56 80
2 07/30/2017 10:49:55 0.54,-138.57 -0.25,-134.75 434.39 80
3 07/31/2017 22:16:28 1.12,-130.45 0.23,-134.71 484.39 80
4 08/01/2017 10:37:43 -0.04,-135.61 -0.25,-134.66 107.84 80
5 08/03/2017 10:25:32 -0.67,-132.65 -0.26,-134.57 218.06 80
6 08/03/2017 22:46:56 -0.43,-137.85 0.27,-134.57 372.92 80
7 08/05/2017 22:34:45 0.22,-134.89 0.27,-134.47 47.72 80
8 08/07/2017 22:22:33 0.80,-131.93 0.28,-134.37 277.13 80
9 08/08/2017 10:43:49 0.30,-137.09 -0.29,-134.32 314.68 80
10 08/10/2017 10:31:37 -0.29,-134.12 -0.29,-134.21 9.68 80




NCC Satellite Simultaneous Nadir Overpasses (SNOs) Prediction Service
